Weather History for Easton, MD

Change the Weather History Date:

Monday, March 12, 2012

  Actual Average Record
Temperature  
Mean Temperature 54 °F -  
Max Temperature 68 °F 57 °F 72 °F (1967)
Min Temperature 41 °F 35 °F 10 °F (1960)
Degree Days  
Heating Degree Days 10    
Growing Degree Days 4 (Base 50)    
Moisture  
Dew Point 41 °F    
Average Humidity 72    
Maximum Humidity 87    
Minimum Humidity 39    
Precipitation  
Precipitation 0.00 in - - ()
Sea Level Pressure  
Sea Level Pressure 30.34 in    
Wind  
Wind Speed 7 mph (SSW)    
Max Wind Speed 15 mph    
Max Gust Speed 21 mph    
Visibility 10 miles    
Events Rain    
Averages and records for this station are not official NWS values.
T = Trace of Precipitation, MM = Missing Value Source: NWS Daily Summary

Daily Weather History Graph

Daily Weather History Graph

Search for Another Location

Airport:

Trip Planner

Search our weather history database for the weather conditions in past years. The results will help you decide how hot, cold, wet, or windy it might be!

Date:

Astronomy

Mar. 12, 2012 Rise Set
Actual Time 7:19 AM EDT 7:08 PM EDT
Civil Twilight 6:52 AM EDT 7:35 PM EDT
Nautical Twilight 6:22 AM EDT 8:06 PM EDT
Astronomical Twilight 5:51 AM EDT 8:37 PM EDT
Moon No Moon Rise 9:42 AM EDT (3/12)
Length of Visible Light 12h 42m
Length of Day
11h 49m
Waning Gibbous, 76% of the Moon is Illuminated
Mar 12
Waning Gibbous
Mar 14
Last Quarter
Mar 22
New
Mar 30
First Quarter
Apr 6
Full

Hourly Weather History & Observations

Time (EDT) Temp. Windchill Dew Point Humidity Pressure Visibility Wind Dir Wind Speed Gust Speed Precip Events Conditions
12:18 AM 42.8 °F 38.6 °F 37.4 °F 81% 30.45 in 10.0 mi South 6.9 mph - N/A   Clear
12:39 AM 42.8 °F 38.6 °F 37.4 °F 81% 30.44 in 10.0 mi South 6.9 mph - N/A   Clear
1:00 AM 42.8 °F 39.3 °F 37.4 °F 81% 30.44 in 10.0 mi SSW 5.8 mph - N/A   Clear
1:21 AM 42.8 °F 40.1 °F 37.4 °F 81% 30.44 in 10.0 mi South 4.6 mph - N/A   Clear
1:42 AM 42.8 °F 39.3 °F 37.4 °F 81% 30.43 in 10.0 mi South 5.8 mph - N/A   Clear
2:03 AM 42.8 °F 40.1 °F 37.4 °F 81% 30.42 in 10.0 mi South 4.6 mph - N/A   Clear
2:24 AM 42.8 °F 39.3 °F 37.4 °F 81% 30.42 in 10.0 mi South 5.8 mph - N/A   Clear
2:45 AM 42.8 °F 41.1 °F 37.4 °F 81% 30.41 in 10.0 mi SSW 3.5 mph - N/A   Clear
3:06 AM 42.8 °F 40.1 °F 37.4 °F 81% 30.41 in 10.0 mi South 4.6 mph - N/A   Clear
3:30 AM 42.8 °F 40.1 °F 37.4 °F 81% 30.40 in 10.0 mi South 4.6 mph - N/A   Clear
3:51 AM 41.0 °F 38.0 °F 37.4 °F 87% 30.39 in 10.0 mi South 4.6 mph - N/A   Clear
4:12 AM 41.0 °F 38.0 °F 37.4 °F 87% 30.38 in 10.0 mi South 4.6 mph - N/A   Clear
4:33 AM 42.8 °F 40.1 °F 37.4 °F 81% 30.37 in 10.0 mi South 4.6 mph - N/A   Clear
4:54 AM 41.0 °F 38.0 °F 37.4 °F 87% 30.38 in 10.0 mi SSW 4.6 mph - N/A   Clear
5:15 AM 41.0 °F 38.0 °F 37.4 °F 87% 30.38 in 10.0 mi SSW 4.6 mph - N/A   Clear
5:36 AM 41.0 °F 37.1 °F 35.6 °F 81% 30.38 in 10.0 mi SSW 5.8 mph - N/A   Clear
5:50 AM 41.0 °F 37.1 °F 37.4 °F 87% 30.39 in 10.0 mi SW 5.8 mph - N/A   Clear
5:57 AM 41.0 °F 39.0 °F 35.6 °F 81% 30.39 in 10.0 mi SSW 3.5 mph - N/A   Clear
6:09 AM 42.8 °F 41.1 °F 35.6 °F 76% 30.39 in 10.0 mi SSW 3.5 mph - N/A   Clear
6:50 AM 41.0 °F 37.1 °F 35.6 °F 81% 30.39 in 10.0 mi SSW 5.8 mph - N/A   Clear
7:50 AM 42.8 °F 39.3 °F 35.6 °F 76% 30.40 in 10.0 mi SSW 5.8 mph - N/A   Clear
8:50 AM 48.2 °F - 37.4 °F 66% 30.39 in 10.0 mi SSW 5.8 mph - N/A   Clear
9:50 AM 53.6 °F - 35.6 °F 51% 30.39 in 10.0 mi SW 10.4 mph - N/A   Clear
10:50 AM 59.0 °F - 35.6 °F 42% 30.39 in 10.0 mi SW 15.0 mph - N/A   Clear
11:50 AM 62.6 °F - 37.4 °F 39% 30.37 in 10.0 mi SW 10.4 mph - N/A   Scattered Clouds
12:50 PM 64.4 °F - 41.0 °F 42% 30.35 in 10.0 mi SW 10.4 mph - N/A   Scattered Clouds
1:50 PM 66.2 °F - 44.6 °F 46% 30.31 in 10.0 mi SSW 12.7 mph 19.6 mph N/A   Scattered Clouds
2:50 PM 68.0 °F - 48.2 °F 49% 30.27 in 10.0 mi SSW 10.4 mph 16.1 mph N/A   Scattered Clouds
3:50 PM 68.0 °F - 48.2 °F 49% 30.26 in 10.0 mi SSW 12.7 mph 20.7 mph N/A   Scattered Clouds
4:50 PM 66.2 °F - 50.0 °F 56% 30.24 in 10.0 mi South 11.5 mph 17.3 mph N/A   Mostly Cloudy
5:50 PM 64.4 °F - 50.0 °F 59% 30.23 in 10.0 mi South 10.4 mph - N/A   Mostly Cloudy
6:50 PM 62.6 °F - 48.2 °F 59% 30.23 in 10.0 mi South 11.5 mph - N/A   Overcast
7:50 PM 59.0 °F - 48.2 °F 67% 30.22 in 10.0 mi South 8.1 mph - N/A   Overcast
8:50 PM 59.0 °F - 48.2 °F 67% 30.22 in 10.0 mi South 9.2 mph - N/A   Mostly Cloudy
10:18 PM 59.0 °F - 50.0 °F 72% 30.20 in 10.0 mi South 10.4 mph 16.1 mph N/A   Clear
10:39 PM 59.0 °F - 51.8 °F 77% 30.20 in 10.0 mi South 9.2 mph - N/A Rain Rain
11:00 PM 59.0 °F - 51.8 °F 77% 30.20 in 10.0 mi South 9.2 mph - N/A   Drizzle
11:21 PM 59.0 °F - 51.8 °F 77% 30.19 in 10.0 mi South 10.4 mph 16.1 mph N/A   Clear
11:42 PM 59.0 °F - 51.8 °F 77% 30.19 in 10.0 mi SSW 9.2 mph - N/A   Clear